Wind_Speed
17 17 17 17 19 18 19 19 19 20 22 22 23 22 20 19 20 25 30 33 35 37 38 39 41 41 43 44 48 50 53 56 59 60 59 55 52 54 57 52 47 47 50 54
19 18 18 18 20 21 23 23 22 22 24 25 25 21 20 21 24 28 32 35 37 39 41 42 42 44 45 48 51 55 57 59 63 64 60 57 59 59 53 48 47 48 49 51
19 19 18 17 20 22 23 24 23 23 25 25 24 23 22 25 28 31 34 35 37 40 41 43 45 46 49 53 56 58 59 62 64 62 60 61 62 56 51 49 49 51 52 52
20 20 20 20 20 21 23 24 24 25 24 24 22 25 26 29 34 37 37 38 40 42 44 45 46 47 51 54 57 60 62 65 65 63 62 63 60 58 56 50 49 51 52 48
19 22 22 21 20 23 22 21 23 23 22 23 25 28 30 33 36 38 39 41 42 43 44 45 46 49 51 54 58 61 65 66 66 64 64 61 58 59 61 58 52 50 48 47
20 21 21 20 19 20 22 24 24 23 23 25 28 33 35 36 36 38 40 42 42 45 45 46 48 49 53 55 59 62 65 65 65 63 64 60 60 59 60 58 54 50 46 43
24 24 21 20 19 20 22 24 26 25 26 28 32 36 34 37 39 38 41 40 43 44 45 45 47 50 52 55 60 61 63 63 61 60 60 59 59 57 57 56 51 50 47 41
23 21 22 22 21 20 22 23 25 31 31 33 33 38 39 39 38 40 40 42 41 43 44 46 49 50 53 56 59 60 62 62 59 56 57 58 57 56 56 55 54 49 48 42
18 20 19 20 21 22 23 25 28 32 35 39 41 40 41 39 39 40 41 43 44 46 50 51 51 53 54 56 57 58 58 58 58 57 57 57 57 56 59 56 54 53 47 43
11 13 16 20 23 25 28 30 31 33 40 43 45 45 42 39 38 42 44 45 48 52 54 55 55 56 56 57 58 59 59 58 56 56 56 54 54 57 59 55 53 52 49 46
16 17 18 24 27 30 33 35 36 38 40 43 46 45 40 41 43 43 47 50 53 55 56 56 56 57 58 59 60 61 60 58 54 54 53 51 54 55 51 51 48 45 41 40
20 21 22 27 29 32 34 35 37 39 40 41 41 43 41 43 44 46 47 51 53 55 55 55 57 57 60 61 61 58 56 54 53 51 48 49 50 48 39 40 37 33 30 25
24 25 26 30 31 31 32 33 35 36 36 35 39 39 41 43 46 48 49 51 53 54 55 56 57 59 61 62 60 56 54 52 50 46 45 45 39 37 37 35 32 29 26 24
28 28 30 31 33 33 32 33 34 34 35 38 36 41 42 46 48 50 51 51 52 53 55 55 57 59 59 59 54 51 49 49 46 43 43 36 34 32 30 27 26 24 21 18
32 32 33 33 34 33 30 28 29 31 35 39 40 42 43 46 48 48 49 50 51 51 54 58 57 56 56 52 49 49 49 45 44 37 31 31 28 25 24 24 22 19 18 16
31 31 31 28 30 29 25 26 28 31 35 36 39 42 44 45 46 47 46 48 50 55 56 56 54 54 51 49 48 47 44 44 27 24 24 20 17 17 18 17 16 18 17 13
27 27 26 20 24 25 26 27 31 33 35 38 40 42 42 44 45 45 46 51 54 56 56 57 56 50 48 46 46 42 35 23 19 18 17 14 14 16 15 13 11 11 12 9
24 25 24 21 24 24 26 28 30 33 33 38 40 42 43 44 44 45 50 54 56 55 57 53 47 45 45 43 38 31 24 18 18 16 16 20 21 21 20 18 16 14 14 12
23 23 23 23 23 24 25 28 31 34 34 40 40 42 42 44 47 48 52 52 52 54 50 44 42 42 40 35 28 22 17 18 20 19 22 22 20 19 21 22 22 21 19 16
21 23 23 24 26 29 29 30 34 39 39 42 42 42 45 47 49 51 52 50 53 48 45 40 38 36 32 26 20 17 15 18 20 21 19 18 21 24 23 19 15 12 12 11
21 23 23 24 27 29 29 35 38 40 44 44 45 46 46 50 54 53 52 54 48 46 39 36 32 27 22 16 16 13 16 19 19 17 19 22 21 17 14 16 15 10 6 4
22 23 23 25 28 31 34 38 41 44 43 44 44 47 50 53 52 52 53 49 45 39 34 29 20 17 13 13 12 14 13 15 16 19 18 16 17 17 16 14 12 10 10 7
21 22 24 26 30 36 38 42 45 43 43 43 47 51 53 52 51 51 49 45 40 30 18 11 13 10 11 10 10 10 15 17 16 16 18 17 18 18 17 16 15 13 10 7
20 20 23 28 32 37 40 43 42 41 42 47 50 50 49 49 49 48 42 39 27 15 15 13 10 10 10 8 9 14 15 14 16 17 19 20 18 17 18 17 14 11 8 5
18 20 24 28 33 37 39 38 37 41 45 46 46 46 48 49 45 37 36 31 13 16 13 10 11 10 9 10 13 11 14 15 17 19 19 18 18 18 17 16 18 16 8 2
18 22 26 30 34 35 33 34 38 42 41 42 44 45 45 38 34 33 30 10 12 11 9 11 11 10 10 10 10 14 15 18 19 21 20 19 18 18 16 16 16 15 10 7
Wind_Direction
248 251 252 250 254 254 257 257 257 261 271 267 258 261 266 284 299 305 308 307 306 306 305 303 302 302 302 302 304 306 307 307 307 308 307 305 302 297 298 297 292 288 287 282
253 249 250 252 256 255 256 257 264 269 266 264 266 269 282 295 301 303 304 307 307 305 303 302 300 301 300 301 303 304 305 306 306 307 307 304 302 302 297 293 290 290 292 295
260 257 256 256 259 262 261 266 263 263 267 270 277 283 296 297 297 301 306 306 304 301 299 299 301 300 301 302 301 301 302 303 306 305 304 305 306 302 298 297 297 300 300 301
257 256 255 256 263 270 269 269 260 259 263 274 283 292 293 297 302 304 304 305 304 302 300 299 298 297 298 299 299 299 302 306 306 304 304 305 305 301 299 296 294 300 302 299
260 261 260 261 266 267 266 259 261 263 270 277 285 289 293 299 302 302 304 304 300 299 297 296 295 297 298 297 298 301 304 306 305 304 302 304 303 302 305 307 300 300 302 297
255 258 265 267 261 256 262 263 264 266 272 279 285 288 294 301 303 302 302 299 300 299 296 298 301 301 299 298 298 301 303 304 303 301 301 303 302 300 301 300 297 300 303 296
261 262 262 262 257 256 260 261 267 270 276 281 285 287 299 302 304 303 298 298 298 297 299 300 298 297 296 297 299 301 302 300 299 299 299 297 295 298 297 294 293 296 297 289
267 262 262 262 266 266 262 268 275 280 281 283 290 294 300 301 299 297 298 299 299 299 298 294 295 296 298 300 300 302 303 303 302 299 296 293 293 294 296 292 288 288 290 288
273 274 273 269 267 267 266 270 274 278 283 287 290 297 298 304 302 302 302 302 301 298 297 299 300 302 301 302 302 300 299 300 300 300 298 293 292 294 297 293 287 284 285 287
271 275 273 270 268 270 273 275 282 288 291 295 297 299 304 306 305 306 305 302 301 300 303 305 306 306 305 302 302 304 305 303 304 303 300 297 296 298 298 298 293 286 282 279
262 260 259 266 271 276 280 284 288 290 292 294 299 302 309 307 307 305 303 303 305 306 307 307 306 305 304 305 308 308 305 303 303 303 303 301 301 303 302 301 299 292 282 277
276 274 271 272 272 277 283 287 290 293 294 297 300 304 305 301 303 304 305 304 304 305 305 305 304 305 307 310 312 311 309 307 305 306 304 305 306 310 313 314 312 303 292 282
277 279 279 280 282 284 288 291 291 292 295 296 295 301 299 302 303 303 304 306 305 305 305 304 307 310 313 315 314 312 310 310 310 306 309 309 314 317 315 318 317 313 302 288
282 283 283 283 285 289 293 296 298 300 298 297 305 303 305 307 306 306 305 305 304 305 305 308 310 313 314 312 314 312 312 311 310 312 309 314 315 312 315 320 322 323 320 308
283 284 284 285 287 291 294 293 293 295 299 303 305 306 305 304 304 305 305 304 304 305 308 310 311 312 311 311 314 314 314 314 312 311 315 316 319 322 327 323 327 329 338 322
280 281 282 285 285 288 291 295 295 297 300 304 303 304 306 306 305 305 306 304 308 310 310 309 310 312 310 315 318 317 317 314 317 317 319 321 338 343 343 347 349 332 334 348
281 280 282 282 278 284 290 293 296 300 304 305 306 306 307 307 309 309 308 309 309 310 310 313 314 312 312 318 317 318 320 326 325 321 314 324 326 325 324 330 339 358 5 351
282 280 280 281 282 286 295 297 303 304 306 305 308 309 310 309 309 308 307 311 312 312 312 312 311 309 312 316 318 320 324 327 322 309 316 325 327 324 320 318 316 314 313 317
281 280 282 288 293 298 301 305 305 307 310 309 311 310 308 309 311 313 313 311 310 311 311 311 308 309 313 318 318 321 321 317 310 309 323 327 328 329 325 315 306 296 297 295
281 285 293 302 303 306 308 309 309 309 311 311 311 312 314 314 313 314 315 313 313 314 314 313 308 309 316 316 320 320 320 326 319 318 324 323 320 316 314 320 333 329 311 299
285 289 298 300 302 309 311 311 312 313 314 314 315 316 315 315 317 319 318 319 319 319 315 308 307 312 316 318 325 324 334 331 325 327 324 320 321 325 327 329 329 343 350 336
285 291 295 301 308 309 314 312 311 311 314 315 317 315 316 317 319 320 321 323 324 321 311 306 312 317 321 329 339 350 343 331 329 330 337 341 337 333 331 329 328 329 322 318
285 292 300 307 314 313 314 311 312 316 317 318 315 315 316 318 319 322 324 326 331 328 332 334 334 340 343 2 3 358 338 332 342 351 342 338 336 339 344 345 342 334 320 314
285 301 314 316 316 317 314 313 314 317 316 313 314 315 316 318 319 322 325 334 339 353 355 358 6 27 27 22 13 347 348 6 357 344 344 350 2 6 7 8 1 346 307 265
306 315 319 320 320 321 313 314 315 313 313 314 314 315 316 316 320 326 330 336 345 349 5 27 40 42 35 29 359 13 13 360 353 355 13 21 11 10 16 22 32 26 15 3
300 313 315 313 315 316 314 312 314 315 319 317 312 311 312 317 324 325 331 342 344 34 40 48 49 46 39 18 32 18 8 5 12 29 21 11 8 18 21 26 36 45 49 69
Height
5847 5847 5848 5848 5849 5850 5850 5851 5850 5851 5849 5850 5849 5850 5850 5849 5848 5846 5842 5840 5836 5831 5827 5824 5821 5817 5812 5807 5801 5796 5790 5785 5780 5777 5774 5770 5766 5761 5756 5751 5748 5745 5743 5740
5844 5844 5845 5846 5846 5847 5847 5847 5847 5847 5845 5845 5845 5845 5845 5844 5842 5841 5839 5834 5829 5824 5820 5816 5812 5808 5802 5797 5790 5784 5778 5773 5768 5763 5758 5754 5750 5746 5741 5736 5732 5729 5726 5721
5840 5841 5841 5842 5842 5843 5843 5843 5843 5843 5841 5840 5840 5839 5839 5839 5838 5836 5831 5827 5823 5818 5814 5809 5804 5797 5791 5785 5778 5773 5767 5762 5757 5752 5746 5740 5734 5727 5724 5720 5716 5711 5708 5703
5836 5836 5836 5837 5838 5839 5839 5839 5839 5839 5838 5836 5836 5835 5834 5833 5830 5826 5822 5819 5815 5810 5806 5800 5795 5789 5782 5775 5767 5760 5755 5750 5743 5738 5732 5726 5721 5715 5709 5705 5701 5696 5692 5688
5832 5831 5832 5833 5835 5834 5834 5835 5835 5834 5834 5832 5832 5831 5829 5828 5824 5819 5815 5811 5805 5801 5796 5791 5786 5780 5773 5765 5757 5750 5744 5737 5729 5722 5716 5712 5707 5702 5696 5691 5687 5682 5677 5673
5827 5827 5828 5830 5830 5830 5830 5829 5829 5829 5829 5829 5827 5825 5823 5820 5816 5812 5807 5802 5797 5793 5787 5781 5775 5768 5761 5754 5746 5740 5732 5724 5716 5710 5703 5698 5694 5690 5684 5679 5673 5668 5663 5660
5824 5824 5824 5825 5825 5825 5825 5824 5823 5824 5824 5823 5820 5816 5816 5811 5806 5803 5798 5795 5791 5785 5779 5773 5765 5758 5751 5744 5736 5729 5721 5713 5706 5699 5693 5687 5682 5677 5671 5665 5661 5655 5651 5647
5818 5821 5820 5820 5821 5822 5820 5820 5819 5815 5816 5815 5813 5810 5807 5804 5800 5795 5791 5787 5782 5776 5769 5762 5755 5748 5741 5734 5726 5718 5710 5702 5695 5688 5681 5675 5669 5664 5656 5650 5645 5642 5637 5634
5815 5816 5816 5815 5816 5817 5816 5815 5814 5811 5809 5806 5804 5802 5799 5795 5790 5786 5781 5775 5769 5763 5756 5750 5744 5737 5731 5723 5715 5707 5699 5691 5683 5675 5667 5661 5655 5649 5642 5635 5629 5625 5622 5620
5813 5813 5812 5810 5811 5810 5809 5808 5807 5805 5800 5796 5794 5791 5790 5787 5781 5776 5770 5764 5757 5751 5745 5738 5731 5724 5717 5710 5702 5694 5685 5676 5668 5660 5653 5646 5641 5634 5626 5618 5612 5608 5605 5603
5808 5809 5810 5806 5805 5803 5802 5800 5799 5797 5794 5789 5785 5782 5780 5775 5770 5766 5759 5753 5746 5739 5732 5726 5719 5712 5705 5696 5688 5680 5671 5663 5655 5647 5640 5633 5627 5619 5610 5603 5597 5591 5587 5585
5803 5802 5802 5799 5798 5797 5796 5794 5792 5788 5786 5782 5778 5776 5772 5767 5762 5756 5749 5743 5736 5729 5722 5714 5707 5699 5691 5683 5675 5665 5656 5648 5641 5634 5628 5621 5614 5606 5598 5592 5585 5579 5576 5574
5796 5795 5795 5792 5792 5791 5789 5788 5784 5782 5779 5777 5772 5771 5764 5759 5753 5746 5739 5733 5726 5718 5711 5703 5695 5687 5678 5669 5661 5652 5644 5637 5629 5622 5617 5611 5604 5597 5591 5585 5579 5574 5570 5568
5789 5788 5787 5787 5784 5783 5782 5779 5775 5773 5771 5766 5766 5759 5754 5748 5742 5735 5729 5723 5716 5708 5700 5692 5685 5676 5667 5659 5651 5642 5634 5626 5619 5613 5608 5602 5596 5590 5585 5579 5574 5570 5566 5563
5782 5781 5780 5779 5776 5775 5775 5774 5771 5767 5763 5758 5756 5750 5745 5739 5733 5727 5720 5712 5705 5698 5690 5682 5675 5666 5657 5650 5642 5632 5624 5617 5611 5606 5600 5595 5590 5584 5580 5575 5571 5566 5562 5559
5775 5773 5772 5773 5769 5768 5768 5765 5763 5760 5756 5752 5748 5743 5737 5731 5724 5717 5709 5701 5695 5687 5680 5672 5665 5657 5647 5640 5631 5624 5617 5609 5603 5599 5595 5591 5586 5581 5577 5572 5567 5563 5561 5558
5769 5766 5766 5767 5764 5762 5762 5760 5756 5753 5749 5744 5738 5734 5728 5721 5714 5707 5700 5692 5684 5677 5669 5661 5654 5645 5638 5631 5623 5616 5610 5603 5599 5596 5592 5588 5584 5580 5577 5572 5567 5563 5560 5558
5762 5760 5760 5760 5758 5758 5756 5752 5749 5745 5741 5734 5730 5724 5718 5712 5705 5698 5689 5682 5674 5666 5658 5651 5643 5636 5630 5623 5617 5610 5605 5601 5597 5594 5591 5587 5584 5580 5576 5571 5568 5565 5562 5559
5755 5754 5753 5753 5752 5751 5749 5745 5741 5737 5734 5726 5721 5715 5709 5703 5697 5690 5680 5672 5664 5656 5648 5641 5634 5627 5622 5616 5611 5606 5602 5599 5596 5593 5590 5586 5581 5577 5573 5568 5564 5561 5559 5557
5748 5747 5747 5746 5744 5741 5740 5737 5733 5727 5723 5718 5712 5705 5698 5691 5685 5680 5671 5661 5653 5645 5637 5631 5624 5619 5615 5611 5606 5602 5600 5597 5594 5590 5586 5582 5577 5573 5569 5564 5559 5556 5554 5552
5743 5741 5741 5739 5737 5736 5733 5729 5723 5719 5716 5706 5701 5694 5689 5681 5673 5666 5657 5650 5641 5634 5627 5621 5616 5613 5610 5606 5604 5601 5598 5595 5591 5587 5583 5578 5574 5570 5566 5562 5559 5556 5553 5551
5738 5737 5736 5734 5732 5731 5727 5721 5717 5712 5705 5699 5693 5686 5679 5672 5665 5656 5649 5640 5633 5625 5618 5613 5610 5608 5606 5604 5602 5600 5597 5593 5589 5584 5580 5576 5573 5569 5564 5560 5557 5554 5552 5550
5733 5732 5731 5730 5727 5722 5718 5712 5707 5702 5696 5690 5684 5677 5670 5663 5656 5649 5642 5634 5624 5616 5611 5608 5607 5606 5605 5604 5602 5599 5596 5591 5588 5584 5581 5576 5570 5565 5560 5555 5552 5549 5547 5546
5726 5726 5725 5723 5720 5715 5710 5704 5699 5694 5688 5682 5676 5669 5662 5655 5649 5643 5636 5628 5621 5617 5612 5610 5608 5607 5606 5604 5602 5599 5596 5592 5589 5584 5579 5573 5567 5562 5557 5553 5549 5545 5544 5544
5721 5720 5719 5716 5712 5708 5702 5697 5693 5688 5681 5674 5668 5661 5655 5648 5643 5637 5631 5626 5622 5618 5614 5613 5611 5609 5607 5606 5604 5601 5597 5593 5589 5583 5577 5572 5567 5563 5558 5553 5548 5544 5542 5542
5716 5715 5713 5710 5706 5701 5697 5693 5687 5681 5675 5668 5661 5655 5648 5642 5637 5632 5628 5625 5622 5619 5618 5617 5614 5612 5611 5609 5606 5603 5599 5594 5588 5583 5579 5574 5568 5564 5559 5554 5550 5547 5544 5543